ARIANE 5 R/B, 41749

Orbit data source: Space-Track

ARIANE 5 R/B, 41749 is space debris in HEO originally from a launch on Wed, 24 Aug 2016 UTC launched from the French Guiana (FRGUI). Debris objects in space refer to the collection of defunct objects orbiting the Earth. Examples of debris include non-operational satellites, rocket bodies, and fragments generated from explosions, collisions, or faulty payload assembly.

Loading next visibility...
Identifier
41749, 2016-053C
Orbit
HEO
Country
Flag of FRFR
Related business
Manufacturer
Airbus Safran
Mission
Spacecraft
Bus & Motor
ESC-A, Unknown motor
Mass
~5,000 kg wet, ~5,000 kg dry
Launch date (UTC)
2016-08-24 (10 years ago)
Launch vehicle
Unknown
Launch site
French Guiana (FRGUI)
Object type
Payload
Rocket body
Debris
Shape & HBR
Cyl + 1 Nozzle, 3.5 m
Radar Cross Section
41.627 m², Large (>1 m²)

Expand to show TLE details & history
Last TLE update: 14 hours ago

TLE from 14 hours ago
0 ARIANE 5 R/B
1 41749U 16053C   26196.16078589  .00000398  00000-0  24309-3 0  9999
2 41749   6.4722  16.6237 7116343  12.8577 358.5005  2.46731352 85099
Epoch: 2026-07-15T03:51Z
TLE epoch observation values (Epoch: 2026-07-15T03:51:31.900Z)
Latitude
0.00045°
Longitude
25.80533°
Altitude
387.148 km
Speed
10.029 km/s
True Right ascension
01h 06m 50s
True Declination
0° 00' 02"
Sunlit
Object was in daylight at epoch
Visualization orbit readout
Latitude
Unknown
Longitude
Unknown
Altitude
Unknown
Speed
Unknown
Apparent Right ascension
Unknown
Apparent Declination
Unknown
Sunlit
N/A
Visualization observer readout
Local Sidereal Time
05:58:14
Azimuth
Unknown
Elevation
Unknown
Doppler factor
Unknown
Orbital elements
Apogee altitude
33,228.196 km
Perigee altitude
294.496 km
Semi-major axis
23,139.483 km
Eccentricity
0.71163
Inclination
6.4722°
RAAN
16.6237°
Arg. of periapsis
12.8577°
True anomaly
347.41586°
Mean anomaly
358.5005°
Eccentric anomaly
354.81744°
Mean motion
0.61661 °/min
Orbital period
583.83 mins
BSTAR
0.00024309
Loading maneuver chart data...
Computing Atmospheric mass density...
Loading historical data...
Loading historical data...
Loading historical data...
Loading historical data...
Loading historical data...
Loading historical data...
Loading historical data...

Documentation

Showing up to 5 results
|